Content
SEND FEEDBACK

Daily
Averages
Monthly
Summary
India

AMRITSAR, INDIA


Home > Asia > India
Elevation: 752 feet     Latitude: 31 42N     Longitude: 074 47E

WEATHER
 
SELECT A DAY
Number of Records: 129,326;   Date Range: 7/1/96 - 10/21/14
 
SHARE

PRINT THIS DATA

[ ← Previous Day ]
WEATHER ALMANAC - APRIL 4, 2013
[ Next Day → ]
[ °C ]   °F
Weather ElementAverageHighLow
Temperature72.3 °F87 °F (2:30 pm)59 °F (5:00 am)
Dewpoint56.9 °F62.6 °F (8:00 am)50 °F (4:00 pm)
Humidity62.1 %100 % (3:00 am)24 % (2:30 pm)
Barometer29.84 in29.89 in (9:00 am)29.76 in (5:30 pm)
Wind Speed5.8 mph16.1 mph (3:00 pm)
Weather ElementAverage
Visibility3.4 mi
Wind DirectionSSE (172.9 °)

Weather ElementTotal
Precipitation---
Cooling Degree Days8 (Base 65)
Growing Degree Days23 (Base 50)
Averaged from 50 records on April 4, 2013
WEATHER CONDITIONS BREAKOUT
WIND DIRECTION BREAKOUT
WEATHER BY HOUR - APRIL 4, 2013
[ °C ]   °F
Local TimeTemperatureDewpointHumidityBarometerVisibilityWind DirectionWind SpeedGust SpeedPrecipitationEventsConditions
12:30 AM68.0 °F57.2 °F68 %29.86 in3.7 miVariable5.8 mphScattered Clouds
1:00 AM66.2 °F57.2 °F73 %29.86 in3.7 miVariable4.6 mphScattered Clouds
1:30 AM64.4 °F57.2 °F77 %29.86 in3.7 miVariable2.3 mphScattered Clouds
2:00 AM62.6 °F57.2 °F82 %29.86 in3.1 miCalmScattered Clouds
2:30 AM60.8 °F59.0 °F94 %29.86 in3.1 miCalmScattered Clouds
3:00 AM60.8 °F60.8 °F100 %29.83 in3.1 miCalmMostly Cloudy
3:30 AM62.6 °F60.8 °F94 %29.83 in3.1 miCalmMostly Cloudy
5:00 AM59.0 °F59.0 °F100 %29.83 in3.1 miCalmMostly Cloudy
5:30 AM60.0 °F60.0 °F99 %29.83 in2.0 miNW (320°)2.3 mphMist
5:30 AM59.0 °F59.0 °F100 %29.83 in3.1 miVariable2.3 mphMostly Cloudy
6:00 AM60.8 °F59.0 °F94 %29.83 in3.1 miNNW (340°)4.6 mphMostly Cloudy
6:30 AM59.0 °F59.0 °F100 %29.83 in3.1 miCalmMostly Cloudy
7:00 AM59.0 °F59.0 °F100 %29.83 in3.1 miCalmMist
7:30 AM60.8 °F60.8 °F100 %29.86 in3.1 miCalmMist
8:00 AM64.4 °F62.6 °F94 %29.86 in3.1 miCalmMist
8:30 AM68.0 °F62.0 °F76 %29.88 in2.0 miNW (320°)4.6 mphMist
8:30 AM68.0 °F62.6 °F83 %29.86 in3.1 miNW (320°)4.6 mphMist
9:00 AM71.6 °F60.8 °F69 %29.89 in3.1 miNNW (330°)8.1 mphMist
9:30 AM71.6 °F60.8 °F69 %29.89 in3.1 miWNW (300°)6.9 mphHaze
10:00 AM75.2 °F60.8 °F61 %29.89 in3.7 miNW (320°)4.6 mph
10:30 AM77.0 °F60.8 °F57 %29.89 in3.7 miWNW (300°)8.1 mph
11:00 AM80.6 °F59.0 °F48 %29.89 in3.7 miWNW (300°)10.4 mphPartly Cloudy
11:30 AM80.6 °F59.0 °F48 %29.89 in3.7 miNW (320°)12.7 mphPartly Cloudy
12:00 PM80.6 °F59.0 °F48 %29.89 in3.7 miNW (310°)13.8 mphPartly Cloudy
12:30 PM82.4 °F55.4 °F39 %29.89 in3.7 miNW (310°)15.0 mphPartly Cloudy
1:00 PM84.2 °F57.2 °F40 %29.86 in3.7 miNW (320°)11.5 mphPartly Cloudy
1:30 PM84.2 °F55.4 °F37 %29.86 in3.7 miNW (310°)12.7 mphPartly Cloudy
2:00 PM84.2 °F55.4 °F37 %29.83 in3.7 miNW (320°)11.5 mphPartly Cloudy
2:30 PM87.0 °F55.0 °F24 %29.79 in2.0 miNW (320°)15.0 mphClear
2:30 PM86.0 °F55.4 °F35 %29.83 in3.7 miNW (320°)15.0 mphPartly Cloudy
3:00 PM86.0 °F55.4 °F35 %29.83 in3.7 miNW (310°)16.1 mphPartly Cloudy
3:30 PM86.0 °F55.4 °F35 %29.80 in3.7 miWNW (300°)12.7 mphPartly Cloudy
4:00 PM86.0 °F50.0 °F29 %29.80 in3.7 miNW (310°)12.7 mphPartly Cloudy
4:30 PM84.2 °F50.0 °F30 %29.80 in3.7 miWNW (290°)10.4 mphPartly Cloudy
5:00 PM82.4 °F51.8 °F35 %29.80 in3.7 miNW (310°)15.0 mphPartly Cloudy
5:30 PM81.0 °F53.0 °F27 %29.76 in2.0 miNW (320°)11.5 mphScattered Clouds
5:30 PM80.6 °F51.8 °F37 %29.80 in3.7 miNW (310°)15.0 mphPartly Cloudy
6:00 PM80.6 °F51.8 °F37 %29.80 in3.7 miNW (320°)10.4 mphPartly Cloudy
6:30 PM78.8 °F53.6 °F42 %29.80 in3.7 miNW (320°)6.9 mphPartly Cloudy
7:00 PM73.4 °F55.4 °F53 %29.80 in3.7 miWNW (300°)4.6 mphPartly Cloudy
7:30 PM71.6 °F57.2 °F60 %29.80 in3.7 miCalmPartly Cloudy
8:00 PM71.6 °F57.2 °F60 %29.80 in3.7 miCalmPartly Cloudy
8:30 PM71.0 °F55.0 °F47 %29.80 in2.0 miCalmScattered Clouds
8:30 PM71.6 °F55.4 °F57 %29.83 in3.7 miCalmPartly Cloudy
9:00 PM69.8 °F53.6 °F56 %29.83 in3.7 miCalmPartly Cloudy
9:30 PM68.0 °F55.4 °F64 %29.83 in3.7 miCalmPartly Cloudy
10:00 PM66.2 °F53.6 °F64 %29.83 in3.7 miCalm
10:30 PM68.0 °F53.6 °F60 %29.83 in3.7 miCalm
11:00 PM66.2 °F53.6 °F64 %29.83 in3.7 miCalm
11:30 PM64.4 °F53.6 °F68 %29.80 in3.7 miCalm
Hourly data recorded from VIAR, located miles away from Amritsar, India







STORIES FROM OUR PARTNERS